Lapse_Rate
6.5 6.5 6.5 6.5 6.5 6.5 6.5 6.5 6.5 6.5 6.5 6.5 6.5 6.6 4.7 3.7 3.8 3.9 3.8 3.8 3.4 3.7 4.1 4.3 4.0 3.3 3.6 3.8 3.8 3.7 3.7 4.0 4.3 4.1 4.1 3.9 4.0 4.0 3.8 4.2 5.4 6.1 5.8 6.3
6.5 6.5 6.5 6.5 6.5 6.5 6.5 6.5 6.5 6.5 6.5 6.5 5.3 3.1 4.2 4.2 4.2 4.1 4.1 4.3 4.3 5.0 4.9 4.7 3.3 3.1 3.6 4.0 3.7 3.7 3.8 4.1 4.1 4.3 4.3 4.3 4.3 4.2 4.6 4.9 6.2 6.6 5.5 5.2
6.5 6.5 6.5 6.5 6.5 6.5 6.5 6.5 6.5 6.5 6.5 6.2 6.5 5.7 4.7 3.9 3.9 3.7 4.1 4.0 4.4 4.9 4.5 3.4 3.0 3.5 4.1 3.8 3.6 3.7 3.9 4.2 4.5 4.5 4.5 4.3 4.5 4.7 5.0 5.5 6.0 5.2 4.4 3.9
6.5 6.5 6.5 6.5 6.5 6.5 6.5 6.5 6.5 6.5 6.5 6.0 5.5 4.5 3.5 2.9 2.9 3.1 3.4 4.1 4.6 4.1 3.6 2.8 3.2 3.8 3.3 3.4 3.5 3.8 4.4 4.7 4.6 4.6 4.2 4.3 4.6 4.8 4.9 4.8 5.2 4.2 3.6 3.6
6.5 6.5 6.5 6.5 6.5 6.5 6.5 6.5 6.5 6.5 6.4 5.7 4.2 4.5 5.0 3.0 2.8 3.0 3.8 4.1 3.7 3.0 3.0 3.3 3.8 3.5 3.3 3.6 4.0 4.5 4.7 4.7 4.7 4.5 4.1 4.3 4.6 4.8 4.9 4.8 4.8 4.6 3.9 3.5
6.5 6.5 6.5 6.5 6.5 5.7 6.0 6.5 5.6 5.0 5.7 5.3 5.2 6.5 6.5 2.1 2.5 3.0 3.3 3.6 3.3 3.1 3.2 3.7 3.8 3.1 3.9 4.4 4.2 4.5 4.9 4.9 4.6 4.4 4.5 4.5 4.3 4.5 4.6 4.4 4.3 3.8 4.0 3.5
6.5 6.5 6.5 6.5 6.1 5.5 6.5 6.5 4.6 3.3 2.9 3.8 6.2 4.3 2.9 1.3 2.5 3.5 3.7 3.5 3.1 3.4 3.8 3.8 3.3 3.8 4.3 4.2 4.4 4.8 4.7 4.3 4.4 4.7 4.5 4.4 4.0 4.1 4.0 3.5 3.5 2.8 3.1 3.4
6.5 6.5 6.5 5.2 6.3 6.5 5.4 3.2 1.5 1.3 0.9 2.4 1.7 2.5 2.9 2.8 3.5 4.1 3.6 3.4 3.5 3.5 3.7 3.4 3.6 3.9 4.0 4.0 4.6 4.2 3.8 3.7 4.2 4.7 4.7 4.9 4.4 4.2 4.2 3.6 3.7 2.6 -1.3 0.9
6.5 6.5 5.4 4.0 4.8 3.1 2.6 2.9 1.9 0.7 0.1 1.8 2.0 3.5 3.7 4.0 4.3 4.4 3.5 3.0 3.0 3.5 3.9 3.8 3.5 3.6 3.8 4.0 3.7 3.5 3.2 3.4 4.2 5.5 4.9 4.7 4.5 4.2 4.1 4.1 2.2 2.8 3.4 1.6
6.5 6.4 5.7 3.2 2.4 2.5 3.0 2.2 2.7 1.6 0.7 1.8 2.8 3.6 3.8 3.8 3.4 4.1 2.9 3.5 3.4 3.6 3.6 3.4 3.3 3.4 3.4 3.4 3.0 3.0 3.7 4.4 5.4 5.7 5.2 4.8 4.7 4.5 4.1 2.1 2.8 4.4 3.5 3.3
6.5 5.8 4.0 2.6 1.7 1.5 1.7 1.6 1.6 1.4 1.5 2.5 3.1 4.0 3.6 3.9 4.0 3.4 3.2 3.1 3.2 3.3 3.2 3.3 3.2 3.1 2.8 2.5 2.4 3.0 4.4 5.3 5.8 5.5 4.4 5.1 4.8 4.3 4.9 4.8 4.7 4.2 3.7 2.9
6.5 3.2 4.8 3.7 3.5 1.5 1.6 1.0 1.2 2.8 3.1 3.2 3.7 3.9 4.9 5.4 3.5 3.1 2.9 3.0 3.4 3.6 3.5 3.3 2.8 2.3 2.3 2.6 2.4 3.3 4.5 5.6 6.4 5.9 4.6 4.6 4.9 5.0 5.9 5.7 6.3 7.4 7.3 2.5
4.6 4.0 2.7 3.3 2.0 2.3 2.1 1.9 3.3 3.3 3.3 3.8 4.9 5.6 5.2 3.7 3.0 2.8 3.0 3.6 3.7 3.6 3.2 2.5 2.2 2.1 2.0 2.3 3.1 4.1 5.8 6.2 6.3 5.4 5.0 4.3 3.9 4.6 3.4 4.5 6.8 7.4 7.7 7.9
2.8 3.5 4.4 2.5 3.3 2.1 2.9 3.2 3.4 3.7 4.3 4.5 4.9 4.9 4.0 3.3 3.1 3.4 3.7 3.6 3.2 3.0 2.6 2.5 2.4 2.2 2.8 3.4 4.2 5.1 5.7 5.3 5.3 5.2 5.0 5.3 5.4 4.5 3.6 2.9 2.8 2.6 5.1 6.8
3.8 3.2 4.1 3.8 2.9 3.0 3.8 4.3 4.6 5.1 5.0 4.5 4.5 4.1 3.7 3.4 3.5 3.2 3.2 2.8 2.9 2.7 2.8 2.5 2.1 2.4 3.5 4.2 5.2 5.8 6.0 5.7 5.2 4.1 4.3 4.1 3.5 3.7 3.2 2.5 3.9 3.3 1.9 3.2
3.5 3.6 3.9 3.8 4.9 5.5 5.3 5.5 4.8 4.1 5.7 5.1 5.1 3.5 3.8 3.3 3.4 3.5 3.2 3.0 2.7 2.9 3.1 1.0 1.0 3.4 4.2 5.5 6.2 5.9 6.2 5.5 4.9 4.0 3.3 3.6 4.3 3.5 3.7 4.3 5.0 3.6 3.4 2.7
5.4 5.1 4.3 4.6 5.5 5.0 4.8 4.9 4.7 5.1 5.1 4.7 4.4 3.3 3.6 3.5 1.7 3.0 3.3 1.6 -0.2 0.2 0.7 0.8 1.8 3.6 4.5 5.6 6.0 6.3 6.6 6.7 5.4 4.7 4.0 3.8 4.7 3.8 3.7 5.5 5.4 6.0 3.7 -0.2
3.3 3.8 5.0 4.6 4.6 4.7 4.6 5.3 5.1 4.6 4.1 3.4 0.3 -0.2 -0.1 -0.1 2.0 1.6 0.7 -0.2 -2.2 -0.1 1.3 1.9 1.8 3.1 4.2 5.5 6.2 6.3 6.0 5.8 5.4 5.6 4.9 4.3 5.1 3.5 2.4 2.9 4.0 4.9 4.2 1.4
4.9 4.9 5.1 5.3 6.0 6.1 5.7 5.0 4.2 2.6 0.9 0.8 0.1 1.8 0.5 0.0 0.3 0.9 -0.3 -0.4 -0.5 0.4 2.8 2.0 2.5 2.2 4.0 5.7 5.5 5.1 6.0 6.2 6.1 5.6 4.6 3.5 -0.9 0.1 0.3 0.7 2.0 2.8 3.2 3.1
5.1 5.2 5.4 5.2 4.4 3.9 3.0 3.1 1.2 3.1 3.6 1.0 -1.1 -0.1 1.1 1.6 1.9 -0.1 -1.4 0.3 2.2 2.7 2.4 2.2 1.9 2.2 3.0 5.2 5.0 5.5 6.3 6.4 6.2 4.7 3.4 2.5 0.8 0.4 0.4 0.1 1.7 2.7 3.1 2.7
4.7 5.0 4.3 3.1 2.8 1.6 1.3 0.8 0.7 2.2 2.5 -0.4 -0.5 1.7 2.3 2.5 2.4 1.4 0.8 2.1 2.7 1.1 2.0 1.2 1.8 2.6 3.6 4.3 5.8 6.3 6.7 6.7 6.2 4.4 3.1 2.7 2.2 1.5 1.7 1.8 2.2 2.8 3.7 3.9
4.6 3.8 1.4 0.9 1.5 2.8 2.3 2.2 2.9 -0.1 -0.4 -1.4 -2.4 -1.7 1.0 2.9 2.8 1.8 1.2 2.1 3.4 0.6 2.1 1.5 2.1 2.2 3.1 3.5 6.0 6.3 6.6 6.5 6.4 5.5 3.6 3.6 4.1 3.8 3.5 3.4 3.4 3.4 3.7 3.6
4.9 4.8 4.2 2.0 1.4 4.0 2.5 1.7 0.1 -0.4 0.5 1.0 1.1 1.2 0.5 2.3 2.1 2.6 3.8 3.0 1.2 2.3 2.2 1.3 1.2 2.5 5.0 5.8 6.1 6.3 6.0 6.2 6.6 7.2 6.6 6.0 5.3 5.0 4.8 4.6 4.4 4.2 4.0 3.9
4.9 4.9 4.8 3.7 1.4 2.3 3.6 4.2 3.5 3.3 0.9 1.5 1.5 0.8 1.0 2.5 3.6 1.8 3.3 3.5 3.5 3.6 1.9 2.0 2.0 3.7 3.2 6.6 6.7 6.3 6.6 7.1 6.7 6.9 7.2 7.1 6.5 6.0 5.8 5.3 5.1 4.9 4.5 4.4
3.3 3.8 3.3 2.5 3.0 3.1 3.3 3.2 2.8 2.9 3.1 4.2 4.2 3.1 2.5 2.2 3.4 4.6 4.1 3.9 4.7 3.2 2.7 2.6 2.6 3.3 5.7 5.7 5.7 5.3 5.1 4.8 5.1 5.6 7.2 7.2 7.3 6.9 6.2 6.0 5.6 5.0 4.8 4.8
2.8 2.6 2.5 3.0 3.0 3.2 3.2 3.3 3.6 4.7 5.8 6.0 6.9 7.6 5.6 3.8 3.0 3.6 5.2 5.0 4.7 4.1 3.6 3.2 1.4 -0.3 -0.2 0.2 0.0 0.1 0.4 0.8 1.3 2.4 3.4 5.0 6.8 7.1 6.9 6.2 5.6 5.3 5.3 5.4
3.0 2.4 2.1 2.4 2.6 3.2 3.3 3.9 4.5 4.7 5.3 6.2 6.3 6.5 7.0 7.6 7.5 7.1 6.6 5.6 3.0 1.4 2.7 0.5 -1.2 -0.7 -0.4 -0.2 -0.3 -0.6 -0.3 -0.1 -0.3 -0.7 -0.4 0.2 1.0 2.9 6.1 6.5 6.2 5.7 5.6 5.2
Wind_Speed
2 3 1 2 4 6 7 5 6 5 7 7 9 10 8 8 8 7 7 6 5 4 3 2 3 4 3 1 3 3 4 3 3 3 4 6 6 7 6 5 5 4 3 1
1 4 5 4 6 7 5 4 7 4 10 7 2 7 7 10 9 7 6 6 6 5 4 4 6 5 3 3 4 3 4 3 3 3 5 6 6 6 6 5 4 4 4 4
3 4 5 6 9 10 5 5 7 6 9 5 4 7 9 9 9 8 7 7 7 5 5 5 5 4 2 4 3 4 3 3 3 4 6 6 6 6 6 6 3 4 3 4
2 3 2 6 2 3 7 4 7 2 4 6 4 2 5 6 8 8 7 7 6 5 3 4 3 1 4 4 4 3 2 3 4 5 6 6 5 5 5 3 2 0 3 4
4 3 6 4 5 7 8 8 9 7 4 4 4 4 3 7 6 7 7 6 4 4 4 3 2 3 4 4 2 2 4 5 5 5 5 5 6 6 5 3 1 2 2 4
3 3 6 7 3 3 4 5 7 8 7 8 6 3 7 10 8 8 7 5 6 5 3 1 2 3 2 3 3 5 5 6 5 4 5 6 6 6 3 2 3 4 3 3
3 3 8 7 3 2 5 7 5 9 7 8 6 7 3 7 6 6 5 6 6 5 3 2 2 1 4 4 5 6 5 6 5 4 5 5 5 3 2 3 4 3 3 2
3 2 7 6 4 7 6 2 6 8 8 13 6 6 5 6 7 8 8 6 5 4 2 1 3 2 5 5 4 5 6 6 5 4 3 4 4 2 0 3 3 2 1 2
9 6 4 6 5 3 2 3 5 7 7 11 8 6 7 6 7 6 7 6 3 3 1 2 4 2 4 4 6 6 6 6 4 3 4 4 3 3 2 2 1 2 2 2
2 4 7 9 7 6 5 7 3 4 6 10 11 9 7 8 8 6 5 3 2 2 1 3 5 4 3 5 6 6 6 6 4 3 4 4 3 3 3 2 2 2 2 3
5 9 6 9 8 9 5 4 5 4 6 8 9 8 7 6 5 5 5 3 1 1 2 5 4 4 5 5 5 5 5 5 4 3 4 4 3 4 3 3 4 3 3 3
6 9 4 7 4 2 6 7 6 7 6 6 9 10 10 7 5 4 4 2 1 1 3 5 4 5 5 5 5 5 5 4 4 5 3 3 3 4 7 8 8 9 11 6
6 1 5 4 5 3 4 6 6 8 9 11 9 9 6 4 4 5 3 1 1 3 4 5 5 5 5 5 5 5 6 5 5 5 3 3 3 4 4 4 6 7 8 9
5 4 4 4 4 4 6 8 12 12 12 12 9 5 4 4 4 4 2 2 3 4 4 4 5 5 6 6 5 6 6 8 5 4 3 4 4 5 3 3 3 3 5 5
4 4 1 2 6 8 10 13 14 12 9 9 4 3 4 4 4 3 3 3 2 4 4 5 5 6 6 5 6 7 6 5 5 4 4 4 4 4 3 3 4 3 2 3
3 4 7 11 12 12 14 13 14 11 5 2 3 2 3 3 3 3 3 2 2 4 6 5 6 8 6 5 6 5 7 8 7 4 4 4 4 4 3 4 5 4 3 4
3 6 10 12 12 13 12 9 8 5 4 4 3 3 3 2 4 5 4 3 4 6 6 6 8 7 6 6 6 5 6 7 7 5 5 5 5 4 4 5 5 5 4 4
15 16 14 14 12 9 6 5 3 2 2 1 1 2 2 3 5 5 4 4 4 6 7 7 6 6 5 6 6 5 6 7 4 7 6 6 6 4 4 4 5 6 5 3
16 14 12 10 6 5 3 3 1 3 2 0 1 4 4 5 4 5 2 5 6 6 6 5 6 6 7 8 6 3 6 7 8 6 6 6 3 4 4 4 5 5 5 5
11 7 5 3 2 3 3 3 1 2 1 2 2 3 4 6 6 6 3 8 8 6 4 6 6 6 7 9 8 5 6 8 8 6 5 5 5 5 5 7 6 6 5 5
4 4 4 3 3 2 1 1 2 3 4 1 1 5 6 9 9 7 5 6 7 6 6 6 4 4 4 6 6 6 7 8 7 6 5 5 6 6 7 7 7 7 7 6
2 3 3 4 4 4 4 3 3 4 4 4 4 5 6 9 8 7 8 9 8 5 3 3 4 6 5 8 7 7 8 7 7 6 5 6 7 7 8 8 9 9 8 8
3 2 2 2 2 4 5 4 3 3 5 5 6 5 4 5 4 4 9 3 4 5 3 4 5 6 7 6 7 7 7 7 6 7 6 6 7 7 8 8 9 9 9 9
1 2 3 4 3 4 7 7 7 7 5 6 6 6 4 5 7 4 7 10 12 9 4 5 5 6 6 4 6 7 7 7 6 7 7 9 7 7 8 8 9 8 9 10
5 6 5 6 6 5 7 8 7 6 10 11 9 7 6 3 5 10 7 7 9 6 4 5 4 5 3 5 6 7 8 8 8 9 9 8 8 7 8 8 9 9 9 9
7 5 5 6 5 6 7 8 8 8 9 10 10 10 7 6 5 6 7 7 7 6 2 2 4 2 3 3 4 5 6 7 7 8 9 10 9 8 9 9 9 8 8 7
6 7 7 6 7 8 8 8 9 9 10 11 12 10 9 9 9 10 10 7 3 1 2 3 2 3 2 3 4 5 6 6 8 8 8 8 9 10 11 9 8 7 5 5
Wind_Direction
62 11 353 232 187 181 193 183 169 242 213 244 216 204 190 163 155 158 174 187 190 191 184 190 173 179 188 202 253 248 262 262 298 317 325 326 312 305 308 310 292 307 318 2
182 359 10 283 251 218 223 205 256 256 278 208 217 127 159 171 164 175 188 196 196 176 183 195 191 190 198 255 280 281 294 282 285 316 328 310 308 318 316 320 315 307 349 45
260 4 345 327 224 201 199 192 165 196 230 163 187 194 179 170 177 186 191 196 194 197 199 186 186 188 256 281 294 293 260 264 297 319 305 303 312 313 318 307 329 349 70 90
185 25 351 242 266 225 208 221 207 219 212 195 200 125 155 178 179 194 197 198 203 193 172 169 191 249 285 298 306 292 256 292 310 303 301 303 305 305 306 303 326 173 121 95
140 198 299 289 201 185 174 260 197 204 166 144 101 75 278 203 191 193 194 194 189 164 157 166 220 284 293 304 297 270 291 293 289 293 294 308 310 299 292 272 227 156 128 107
102 148 222 240 263 162 111 294 199 164 172 158 131 161 241 182 182 193 178 161 152 136 123 135 288 285 256 278 288 284 278 268 281 294 312 309 297 297 273 246 152 145 125 117
130 231 286 244 210 176 106 245 166 175 171 151 188 203 191 161 146 153 145 134 117 122 142 251 300 306 264 279 267 274 279 286 291 311 314 301 311 301 268 149 133 127 114 147
109 64 279 165 60 163 218 250 190 184 185 192 193 144 125 112 125 133 127 127 130 127 120 51 343 287 264 265 277 301 299 288 283 301 309 309 305 313 94 149 155 171 94 312
185 215 231 231 218 253 184 215 223 193 195 197 152 157 151 140 135 129 138 135 116 124 67 338 336 316 289 282 311 305 309 294 269 289 297 290 285 243 220 196 170 243 236 256
86 259 233 232 261 233 217 227 221 226 172 173 167 154 141 134 133 138 118 132 122 87 319 303 321 325 282 299 301 296 293 294 264 254 282 278 272 229 206 199 219 242 241 250
261 281 277 263 234 244 229 207 210 196 175 161 133 121 110 96 122 131 148 136 92 276 287 297 298 293 309 309 315 297 291 285 269 249 258 270 242 213 213 226 204 217 228 211
231 238 205 249 284 209 202 219 196 150 105 79 110 113 120 139 154 140 142 158 262 306 296 291 294 304 308 308 319 290 285 281 283 269 230 243 238 252 245 235 253 249 250 195
256 287 217 276 298 251 209 146 124 107 113 114 110 107 143 144 147 152 154 202 249 284 287 306 307 302 294 294 292 284 266 271 283 257 240 231 233 229 244 290 260 252 253 261
237 160 277 215 267 164 125 101 100 99 103 96 83 112 140 144 144 157 192 217 241 274 303 299 290 289 287 288 288 273 259 254 261 249 236 238 236 229 218 220 241 280 277 250
284 222 315 74 87 86 103 107 84 67 64 89 110 126 140 158 180 195 214 218 256 285 276 277 280 283 283 284 279 275 275 261 248 234 229 239 236 219 219 221 228 236 287 297
17 48 64 74 78 76 82 74 79 84 99 118 173 182 202 207 195 246 247 215 234 278 272 268 275 274 287 279 273 277 293 271 264 240 230 224 213 210 223 236 237 233 238 240
76 79 89 84 85 83 77 70 93 136 197 228 232 215 195 241 270 260 250 238 225 251 256 254 261 276 278 278 269 277 289 275 260 249 231 219 219 217 222 237 238 237 234 224
71 72 76 88 92 92 98 151 156 143 205 257 135 117 234 239 257 279 271 275 277 279 267 262 260 264 267 271 269 279 286 275 265 267 249 219 224 218 215 219 228 237 245 242
70 75 73 76 98 122 130 195 112 47 23 160 180 259 257 271 272 273 284 276 268 266 270 256 264 256 273 267 260 251 276 276 275 261 241 227 231 221 222 226 236 234 233 235
97 112 131 122 38 36 45 35 19 334 315 181 211 296 308 289 278 269 238 252 251 244 268 275 273 269 266 274 267 261 273 277 274 257 240 231 224 234 231 234 237 240 236 230
80 58 58 48 21 0 357 321 335 338 334 57 276 280 276 285 285 279 272 277 270 231 244 264 267 272 268 272 273 269 273 280 269 257 244 231 227 233 237 238 238 237 240 236
7 24 359 354 6 347 349 330 314 297 295 291 266 260 268 279 277 277 246 244 278 240 257 262 270 276 286 296 292 283 279 288 281 257 245 241 239 241 242 240 238 236 233 233
330 355 351 324 297 312 316 312 310 266 281 281 280 282 259 274 272 285 299 270 249 251 252 261 265 278 294 306 303 291 285 281 277 281 263 252 251 251 253 253 249 242 235 228
339 11 7 360 4 15 1 341 334 321 284 292 275 263 267 300 302 229 249 271 265 265 261 264 257 270 283 294 294 287 288 287 281 287 276 267 263 261 261 258 256 251 246 242
30 26 24 25 28 8 351 343 331 329 329 321 309 300 287 253 251 300 297 284 273 266 260 266 283 313 320 344 337 333 325 320 318 310 296 281 275 269 263 263 260 257 251 241
41 36 24 22 17 4 355 348 338 335 334 326 320 319 310 293 281 277 283 284 284 277 265 64 55 18 350 343 333 324 321 321 323 323 314 310 307 294 282 273 266 260 252 240
38 30 13 10 9 1 353 339 333 331 329 324 314 313 307 305 296 290 280 274 264 241 100 74 68 43 12 358 349 341 341 347 348 343 340 338 333 327 310 280 273 262 243 207